Powrót do katalogu

STARLINK-36281

AktywnyŁącznośćSSO
NORAD 67605·PAYLOAD·🇺🇸 United States

Wystrzelony Jan 29, 2026 z Vandenberg Space Force Base

Loading…

Następne Przeloty (najbliższe 24 godziny)

TLE

ŚwieżeSource: CelesTrak SupGP

Epoka: Sep 14, 2026, 21:11 UTC

1 67605C 26018S   26257.88312500 -.00031322  00000+0 -97229-3 0  2571
2 67605  97.2852 321.3591 0000857  90.5152 330.8820 15.33456786    18

Śledź STARLINK-36281 w czasie rzeczywistym z AllMySat

Download on the App Store